Location: Helsinki
(60.1699°N, 24.9384°E)
Time: 14:20:09
(UTC+02:00)

Tiros 1 - Pass Details

Date: 05 October 2022
Orbit: 629 x 662 km, 48.4° (Epoch: 07 December)

Event Time Altitude Azimuth Distance (km) Brightness Sun altitude
Rises 02:02:08 0° 234° (SW) 2,990 - -33.5°
Reaches altitude 10° 02:05:02 10° 217° (SW) 2,076 - -33.4°
Maximum altitude 02:08:24 19° 172° (S) 1,550 - -33.3°
Drops below altitude 10° 02:11:45 10° 127° (SE) 2,068 - -33.2°
Sets 02:14:38 0° 110° (ESE) 2,974 - -33.1°
